Time,TemperatureF,DewpointF,PressureIn,WindDirection,WindDirectionDegrees,WindSpeedMPH,WindSpeedGustMPH,Humidity,HourlyPrecipIn,Conditions,Clouds,dailyrainin,SoftwareType,DateUTC
2013-06-02 00:02:00,75.7,-31.4,29.89,WSW,247,3.2,-999.0,1,-99.99,,,0.00,Acu-Link.com,2013-06-02 04:02:00,
2013-06-02 00:17:00,75.7,-31.4,29.89,SSW,202,4.2,-999.0,1,-99.99,,,0.00,Acu-Link.com,2013-06-02 04:17:00,
2013-06-02 00:33:00,75.7,-31.4,29.89,South,180,5.3,-999.0,1,-99.99,,,0.00,Acu-Link.com,2013-06-02 04:33:00,
2013-06-02 00:48:00,75.7,-31.4,29.88,SSW,202,6.8,-999.0,1,-99.99,,,0.00,Acu-Link.com,2013-06-02 04:48:00,
2013-06-02 01:03:00,75.7,-31.4,29.89,SSW,202,6.8,-999.0,1,-99.99,,,0.00,Acu-Link.com,2013-06-02 05:03:00,
2013-06-02 01:18:00,75.6,-31.5,29.88,SSW,202,4.7,-999.0,1,-99.99,,,0.00,Acu-Link.com,2013-06-02 05:18:00,
2013-06-02 01:33:00,75.9,-31.3,29.88,SW,225,7.8,-999.0,1,-99.99,,,0.00,Acu-Link.com,2013-06-02 05:33:00,
2013-06-02 01:48:00,75.9,-31.3,29.88,SSW,202,7.8,-999.0,1,-99.99,,,0.00,Acu-Link.com,2013-06-02 05:48:00,
2013-06-02 02:04:00,75.9,-31.3,29.87,West,270,2.7,-999.0,1,-99.99,,,0.00,Acu-Link.com,2013-06-02 06:04:00,
2013-06-02 02:19:00,75.6,-31.5,29.87,West,270,4.7,-999.0,1,-99.99,,,0.00,Acu-Link.com,2013-06-02 06:19:00,
2013-06-02 02:34:00,75.4,-31.6,29.87,SW,225,5.8,-999.0,1,-99.99,,,0.00,Acu-Link.com,2013-06-02 06:34:00,
2013-06-02 02:49:00,75.2,-31.7,29.87,West,270,8.3,-999.0,1,-99.99,,,0.00,Acu-Link.com,2013-06-02 06:49:00,
2013-06-02 03:04:00,75.2,-31.7,29.86,SW,225,5.3,-999.0,1,-99.99,,,0.00,Acu-Link.com,2013-06-02 07:04:00,
2013-06-02 03:19:00,75.2,-31.7,29.86,South,180,5.8,-999.0,1,-99.99,,,0.00,Acu-Link.com,2013-06-02 07:19:00,
2013-06-02 03:34:00,75.0,-31.8,29.87,SW,225,3.2,-999.0,1,-99.99,,,0.00,Acu-Link.com,2013-06-02 07:34:00,
2013-06-02 03:50:00,75.0,-31.8,29.86,SSW,202,8.3,-999.0,1,-99.99,,,0.00,Acu-Link.com,2013-06-02 07:50:00,
2013-06-02 04:21:00,74.7,-32.0,29.85,WSW,247,6.3,-999.0,1,-99.99,,,0.00,Acu-Link.com,2013-06-02 08:21:00,
2013-06-02 04:36:00,73.9,-32.5,29.85,SW,225,3.7,-999.0,1,-99.99,,,0.00,Acu-Link.com,2013-06-02 08:36:00,
2013-06-02 04:51:00,73.9,-32.5,29.85,SSW,202,6.3,-999.0,1,-99.99,,,0.00,Acu-Link.com,2013-06-02 08:51:00,
2013-06-02 05:06:00,73.9,-32.5,29.85,South,180,5.8,-999.0,1,-99.99,,,0.00,Acu-Link.com,2013-06-02 09:06:00,
2013-06-02 05:22:00,73.4,-32.8,29.86,SSW,202,6.3,-999.0,1,-99.99,,,0.00,Acu-Link.com,2013-06-02 09:22:00,
2013-06-02 05:37:00,73.4,-32.8,29.85,SW,225,3.7,-999.0,1,-99.99,,,0.00,Acu-Link.com,2013-06-02 09:37:00,
2013-06-02 05:52:00,73.6,-32.7,29.85,WSW,247,4.2,-999.0,1,-99.99,,,0.00,Acu-Link.com,2013-06-02 09:52:00,
2013-06-02 06:07:00,73.6,-32.7,29.86,South,180,4.7,-999.0,1,-99.99,,,0.00,Acu-Link.com,2013-06-02 10:07:00,
2013-06-02 06:22:00,73.2,-32.9,29.86,SW,225,5.8,-999.0,1,-99.99,,,0.00,Acu-Link.com,2013-06-02 10:22:00,
2013-06-02 06:38:00,73.9,-32.5,29.86,WSW,247,6.8,-999.0,1,-99.99,,,0.00,Acu-Link.com,2013-06-02 10:38:00,
2013-06-02 06:53:00,74.3,-32.2,29.86,South,180,7.3,-999.0,1,-99.99,,,0.00,Acu-Link.com,2013-06-02 10:53:00,
2013-06-02 07:08:00,74.8,-31.9,29.86,SSW,202,9.9,-999.0,1,-99.99,,,0.00,Acu-Link.com,2013-06-02 11:08:00,
2013-06-02 07:23:00,75.4,-31.6,29.86,WSW,247,9.9,-999.0,1,-99.99,,,0.00,Acu-Link.com,2013-06-02 11:23:00,
2013-06-02 07:38:00,77.0,-30.6,29.86,SW,225,5.8,-999.0,1,-99.99,,,0.00,Acu-Link.com,2013-06-02 11:38:00,
2013-06-02 07:53:00,78.4,77.8,29.86,West,270,3.7,-999.0,98,-99.99,,,0.00,Acu-Link.com,2013-06-02 11:53:00,
2013-06-02 08:09:00,79.2,48.4,29.86,South,180,9.4,-999.0,34,-99.99,,,0.00,Acu-Link.com,2013-06-02 12:09:00,
2013-06-02 08:24:00,80.4,-28.6,29.86,SSW,202,13.0,-999.0,1,-99.99,,,0.00,Acu-Link.com,2013-06-02 12:24:00,
2013-06-02 08:39:00,81.5,-27.9,29.86,SW,225,5.3,-999.0,1,-99.99,,,0.00,Acu-Link.com,2013-06-02 12:39:00,
2013-06-02 08:54:00,81.1,-28.2,29.85,SSW,202,8.9,-999.0,1,-99.99,,,0.00,Acu-Link.com,2013-06-02 12:54:00,
2013-06-02 09:09:00,81.3,-28.1,29.84,WNW,292,6.3,-999.0,1,-99.99,,,0.00,Acu-Link.com,2013-06-02 13:09:00,
2013-06-02 09:25:00,82.4,-27.4,29.84,South,180,11.4,-999.0,1,-99.99,,,0.00,Acu-Link.com,2013-06-02 13:25:00,
2013-06-02 09:40:00,83.1,-27.0,29.85,WNW,292,8.9,-999.0,1,-99.99,,,0.00,Acu-Link.com,2013-06-02 13:40:00,
2013-06-02 09:55:00,84.0,-26.5,29.84,South,180,5.3,-999.0,1,-99.99,,,0.00,Acu-Link.com,2013-06-02 13:55:00,
2013-06-02 10:10:00,84.7,-26.1,29.84,West,270,9.9,-999.0,1,-99.99,,,0.00,Acu-Link.com,2013-06-02 14:10:00,
2013-06-02 10:25:00,84.7,-26.1,29.84,WSW,247,6.8,-999.0,1,-99.99,,,0.00,Acu-Link.com,2013-06-02 14:25:00,
2013-06-02 10:40:00,85.1,-25.8,29.84,West,270,7.3,-999.0,1,-99.99,,,0.00,Acu-Link.com,2013-06-02 14:40:00,
2013-06-02 10:56:00,86.2,-25.2,29.84,SSW,202,7.8,-999.0,1,-99.99,,,0.00,Acu-Link.com,2013-06-02 14:56:00,
2013-06-02 11:11:00,86.5,-25.0,29.84,SW,225,7.8,-999.0,1,-99.99,,,0.00,Acu-Link.com,2013-06-02 15:11:00,
2013-06-02 11:26:00,87.3,-24.5,29.84,SW,225,8.3,-999.0,1,-99.99,,,0.00,Acu-Link.com,2013-06-02 15:26:00,
2013-06-02 11:41:00,87.8,-24.2,29.84,SW,225,6.8,-999.0,1,-99.99,,,0.00,Acu-Link.com,2013-06-02 15:41:00,
2013-06-02 11:56:00,88.2,-24.0,29.84,West,270,8.9,-999.0,1,-99.99,,,0.00,Acu-Link.com,2013-06-02 15:56:00,
2013-06-02 12:11:00,87.4,-24.5,29.83,WSW,247,9.4,-999.0,1,-99.99,,,0.00,Acu-Link.com,2013-06-02 16:11:00,
2013-06-02 12:26:00,88.0,-24.1,29.84,West,270,8.9,-999.0,1,-99.99,,,0.00,Acu-Link.com,2013-06-02 16:26:00,
2013-06-02 12:41:00,87.4,-24.5,29.83,SSW,202,10.9,-999.0,1,-99.99,,,0.00,Acu-Link.com,2013-06-02 16:41:00,
2013-06-02 12:56:00,87.3,-24.5,29.83,SSW,202,5.8,-999.0,1,-99.99,,,0.00,Acu-Link.com,2013-06-02 16:56:00,
2013-06-02 13:12:00,87.3,-24.5,29.83,SSW,202,5.8,-999.0,1,-99.99,,,0.00,Acu-Link.com,2013-06-02 17:12:00,
2013-06-02 13:27:00,86.5,-25.0,29.82,SSW,202,10.9,-999.0,1,-99.99,,,0.00,Acu-Link.com,2013-06-02 17:27:00,
2013-06-02 13:42:00,87.8,-24.2,29.82,SSW,202,7.8,-999.0,1,-99.99,,,0.00,Acu-Link.com,2013-06-02 17:42:00,
2013-06-02 13:57:00,86.7,-24.9,29.82,SW,225,9.4,-999.0,1,-99.99,,,0.00,Acu-Link.com,2013-06-02 17:57:00,
2013-06-02 14:12:00,86.2,-25.2,29.81,WSW,247,14.5,-999.0,1,-99.99,,,0.00,Acu-Link.com,2013-06-02 18:12:00,
2013-06-02 14:27:00,88.0,-24.1,29.82,West,270,10.9,-999.0,1,-99.99,,,0.00,Acu-Link.com,2013-06-02 18:27:00,
2013-06-02 14:42:00,87.8,-24.2,29.82,West,270,5.8,-999.0,1,-99.99,,,0.00,Acu-Link.com,2013-06-02 18:42:00,
2013-06-02 14:57:00,88.3,-23.9,29.81,West,270,6.3,-999.0,1,-99.99,,,0.00,Acu-Link.com,2013-06-02 18:57:00,
2013-06-02 15:12:00,86.2,-25.2,29.81,SSW,202,8.3,-999.0,1,-99.99,,,0.00,Acu-Link.com,2013-06-02 19:12:00,
2013-06-02 15:27:00,88.2,-24.0,29.82,West,270,5.8,-999.0,1,-99.99,,,0.00,Acu-Link.com,2013-06-02 19:27:00,
2013-06-02 15:42:00,87.1,-24.6,29.81,South,180,5.3,-999.0,1,-99.99,,,0.00,Acu-Link.com,2013-06-02 19:42:00,
2013-06-02 15:57:00,87.8,-24.2,29.80,SSW,202,5.8,-999.0,1,-99.99,,,0.00,Acu-Link.com,2013-06-02 19:57:00,
2013-06-02 16:13:00,86.0,-25.3,29.80,NW,315,9.9,-999.0,1,-99.99,,,0.00,Acu-Link.com,2013-06-02 20:13:00,
2013-06-02 16:28:00,85.8,-25.4,29.81,SSW,202,8.9,-999.0,1,-99.99,,,0.00,Acu-Link.com,2013-06-02 20:28:00,
2013-06-02 16:43:00,85.6,-25.5,29.79,SSW,202,9.9,-999.0,1,-99.99,,,0.00,Acu-Link.com,2013-06-02 20:43:00,
2013-06-02 16:58:00,84.4,-26.2,29.80,SW,225,7.8,-999.0,1,-99.99,,,0.00,Acu-Link.com,2013-06-02 20:58:00,
2013-06-02 17:13:00,85.8,-25.4,29.79,WSW,247,6.3,-999.0,1,-99.99,,,0.00,Acu-Link.com,2013-06-02 21:13:00,
2013-06-02 17:29:00,85.1,-25.8,29.79,SSE,157,5.3,-999.0,1,-99.99,,,0.00,Acu-Link.com,2013-06-02 21:29:00,
2013-06-02 17:44:00,84.9,-25.9,29.79,South,180,3.7,-999.0,1,-99.99,,,0.00,Acu-Link.com,2013-06-02 21:44:00,
2013-06-02 17:59:00,82.9,-27.1,29.79,SSE,157,3.7,-999.0,1,-99.99,,,0.00,Acu-Link.com,2013-06-02 21:59:00,
2013-06-02 18:14:00,82.4,-27.4,29.78,SSE,157,2.7,-999.0,1,-99.99,,,0.00,Acu-Link.com,2013-06-02 22:14:00,
2013-06-02 18:29:00,81.7,-27.8,29.78,South,180,6.3,-999.0,1,-99.99,,,0.00,Acu-Link.com,2013-06-02 22:29:00,
2013-06-02 18:44:00,80.6,-28.5,29.79,West,270,1.7,-999.0,1,-99.99,,,0.00,Acu-Link.com,2013-06-02 22:44:00,
2013-06-02 19:00:00,79.7,-29.0,29.79,West,270,3.2,-999.0,1,-99.99,,,0.00,Acu-Link.com,2013-06-02 23:00:00,
2013-06-02 19:15:00,79.9,-28.9,29.78,West,270,1.7,-999.0,1,-99.99,,,0.00,Acu-Link.com,2013-06-02 23:15:00,
2013-06-02 19:30:00,79.3,-29.3,29.78,West,270,6.3,-999.0,1,-99.99,,,0.00,Acu-Link.com,2013-06-02 23:30:00,
2013-06-02 19:46:00,79.2,-29.3,29.78,WSW,247,6.3,-999.0,1,-99.99,,,0.00,Acu-Link.com,2013-06-02 23:46:00,
2013-06-02 20:01:00,79.0,-29.4,29.78,South,180,3.7,-999.0,1,-99.99,,,0.00,Acu-Link.com,2013-06-03 00:01:00,
2013-06-02 20:16:00,78.6,-29.7,29.78,SSW,202,5.8,-999.0,1,-99.99,,,0.00,Acu-Link.com,2013-06-03 00:16:00,
2013-06-02 20:34:00,78.3,-29.9,29.79,WSW,247,6.8,-999.0,1,-99.99,,,0.00,Acu-Link.com,2013-06-03 00:34:00,
2013-06-02 20:49:00,77.9,-30.1,29.79,SW,225,3.2,-999.0,1,-99.99,,,0.00,Acu-Link.com,2013-06-03 00:49:00,
2013-06-02 21:05:00,77.7,-30.2,29.79,SW,225,4.2,-999.0,1,-99.99,,,0.00,Acu-Link.com,2013-06-03 01:05:00,
2013-06-02 21:20:00,77.7,-30.2,29.79,SW,225,6.3,-999.0,1,-99.99,,,0.00,Acu-Link.com,2013-06-03 01:20:00,
2013-06-02 21:35:00,77.5,-30.3,29.80,SW,225,4.7,-999.0,1,-99.99,,,0.00,Acu-Link.com,2013-06-03 01:35:00,
2013-06-02 21:51:00,77.5,-30.3,29.82,SSW,202,5.3,-999.0,1,-99.99,,,0.00,Acu-Link.com,2013-06-03 01:51:00,
2013-06-02 22:06:00,77.5,-30.3,29.82,SW,225,7.3,-999.0,1,-99.99,,,0.00,Acu-Link.com,2013-06-03 02:06:00,
2013-06-02 22:21:00,77.4,55.6,29.83,WSW,247,4.7,-999.0,47,-99.99,,,0.00,Acu-Link.com,2013-06-03 02:21:00,
2013-06-02 22:36:00,74.8,-31.9,29.83,WSW,247,3.2,-999.0,1,-99.99,,,0.02,Acu-Link.com,2013-06-03 02:36:00,
2013-06-02 22:52:00,75.2,-31.7,29.85,West,270,6.8,-999.0,1,-99.99,,,0.02,Acu-Link.com,2013-06-03 02:52:00,
2013-06-02 23:07:00,75.6,-31.5,29.84,SW,225,8.3,-999.0,1,-99.99,,,0.04,Acu-Link.com,2013-06-03 03:07:00,
2013-06-02 23:22:00,75.2,-31.7,29.83,WSW,247,6.8,-999.0,1,-99.99,,,0.08,Acu-Link.com,2013-06-03 03:22:00,
2013-06-02 23:37:00,74.8,-31.9,29.82,WSW,247,6.3,-999.0,1,-99.99,,,0.16,Acu-Link.com,2013-06-03 03:37:00,
2013-06-02 23:52:00,74.7,-32.0,29.81,WSW,247,8.9,-999.0,1,-99.99,,,0.18,Acu-Link.com,2013-06-03 03:52:00,